Location: Camps
(44.9835°N, 1.9906°E)
Time: 16:58:19
(UTC+00:00)

Daily predictions for brighter satellites

Satellite Brightness Start Highest point End
(mag) Time Altitude Azimuth Time Altitude Azimuth Time Altitude Azimuth
Cosmos 2369 3.9 17:52:22 10° S 17:57:50 53° ESE 18:03:21 10° NE
Feng Yun 1-1 Rocket 4.4 17:54:58 10° SSE 18:00:47 80° ENE 18:06:43 10° NNW
Cosmos 1607 4.1 17:55:22 10° SW 18:01:47 89° NW 18:08:19 10° NE
Meteor 1-10 Rocket 4.2 18:00:14 10° N 18:06:01 72° ENE 18:11:39 10° SSE
USA 307 3.5 18:02:08 10° SSW 18:06:08 40° SE 18:10:08 10° ENE
CZ-4 R/B 1.5 18:02:39 10° SE 18:06:19 45° ENE 18:10:02 10° N
SeaSat 1 2.8 18:01:59 10° NE 18:06:44 46° ESE 18:11:28 10° S
Cosmos 2263 Rocket 3.1 18:03:30 10° N 18:08:13 27° NE 18:12:55 10° ESE
SKYMED 2 3.6 18:04:21 10° NNE 18:08:43 89° E 18:13:04 10° SSW
FALCON 9 DEB 3.4 18:09:24 10° SSW 18:12:26 43° SE 18:15:24 11° ENE
USA 306 3.3 18:08:24 10° SSW 18:12:29 47° SE 18:16:35 10° ENE
Cosmos 1939 Rocket 4.3 18:12:07 10° S 18:15:47 42° W 18:19:29 10° NNW
Cosmos 2227 Rocket 3.2 18:10:43 10° NW 18:16:13 53° WSW 18:21:41 10° S
USA 308 3.3 18:12:15 10° SSW 18:16:22 48° SE 18:20:27 10° ENE
Cosmos 1743 Rocket 3.6 18:14:17 10° S 18:18:38 90° ENE 18:23:04 10° N
Cosmos 1805 Rocket 3.8 18:15:34 10° SSE 18:19:44 47° E 18:23:58 10° NNE
H-2A R/B 3.8 18:17:33 10° N 18:21:15 33° WNW 18:24:55 10° SW
Cosmos 1850 Rocket 4.0 18:17:36 10° NNW 18:22:49 89° WSW 18:28:01 10° SSE
Cosmos 2184 Rocket 4.5 18:19:11 10° SSE 18:24:41 36° E 18:30:14 10° NNE
Meteor 1-27 Rocket 3.7 18:20:24 10° N 18:25:55 64° ENE 18:31:23 10° SSE
H-2A R/B 2.1 18:20:37 10° SSE 18:25:59 75° ENE 18:31:28 10° N
ARGOS 3.3 18:21:37 10° SE 18:26:52 54° ENE 18:32:09 10° N
Cosmos 1862 4.1 18:23:37 10° SSW 18:27:33 57° W 18:31:34 10° N
Cosmos 2228 Rocket 3.1 18:24:26 10° N 18:28:59 85° E 18:33:28 10° S
Cosmos 2278 3.7 18:24:38 10° S 18:30:11 61° ESE 18:35:48 10° NNE
Aureole 1 Rocket 4.4 18:23:16 10° NNW 18:30:47 76° WSW 18:36:34 10° SSE
FALCON 9 DEB 2.8 18:27:58 10° SW 18:31:08 74° SSE 18:33:30 17° ENE
Cosmos 1271 Rocket 3.5 18:28:19 10° NNE 18:31:35 28° ENE 18:34:50 10° SE
SL-08 RB Rocket 4.1 18:27:34 10° SE 18:31:43 39° ENE 18:35:56 10° N
COSMOS 2455 2.9 18:25:52 10° NNW 18:31:52 63° NE 18:37:49 10° SE
Cosmos 2297 Rocket 4.3 18:28:42 10° NW 18:33:33 30° WSW 18:38:23 10° SSW
HJ-1C 3.5 18:31:15 10° SSE 18:34:28 50° ENE 18:37:43 10° N
Cosmos 1812 4.2 18:33:58 10° NNW 18:37:36 40° W 18:41:12 10° SSW
CZ-2C R/B 3.0 18:33:29 10° NNE 18:38:48 45° E 18:43:59 10° S
Cosmos 1689 Rocket 1.8 18:36:09 10° NNE 18:39:02 68° ESE 18:41:52 10° S
CSL-04 Debris 4.2 18:34:47 10° SSE 18:40:06 62° ENE 18:45:30 10° N
ATLAS 5 CENTAUR R/B 4.1 18:23:13 10° SW 18:41:33 64° NW 18:46:05 10° NE
Cosmos 2084 3.4 18:37:25 10° SW 18:41:37 84° NW 18:45:57 10° NE
Cosmos 1666 Rocket 4.0 18:37:39 10° SSE 18:41:40 37° E 18:45:41 10° NNE
Cosmos 1709 Rocket 4.5 18:36:34 10° SSW 18:42:38 64° W 18:48:50 10° N
CZ-2C R/B 4.4 18:37:13 10° S 18:42:48 48° W 18:48:18 10° NNW
BREEZE-M DEB (TANK) 2.2 18:42:18 10° W 18:44:25 46° N 18:46:16 20° ENE
Cosmos 1331 Rocket 3.9 18:40:13 10° SSW 18:45:29 75° ESE 18:50:45 10° NNE
Cosmos 1844 Rocket 4.4 18:42:45 10° N 18:45:48 15° NE 18:47:04 14° NE
Gbstr 26 Del rocket 3.3 18:41:32 10° SW 18:45:49 63° SE 18:49:30 19° ENE
Cosmos 2181 Rocket 4.1 18:40:07 10° N 18:46:37 86° W 18:53:02 10° S
NOSS 2-1 (C) 4.2 18:41:56 10° NW 18:46:57 75° NE 18:54:02 10° SE
CSL-04 Rocket 3.7 18:41:59 10° SSE 18:47:29 67° ENE 18:53:00 10° N
Cosmos 292 Rocket 4.2 18:44:02 10° SSW 18:48:44 64° WNW 18:53:28 10° NNE
TSX-5 3.7 18:45:31 10° NNW 18:50:03 68° ENE 18:52:49 17° SE
NOSS 2-1 (D) 4.3 18:48:01 10° NW 18:53:04 81° NE 19:00:16 10° SE
FALCON 9 DEB 2.9 18:52:25 10° WSW 18:55:37 77° NNW 18:56:59 31° NE
YAOGAN 1 3.2 18:51:55 10° S 18:56:10 57° W 19:00:26 10° NNW
Helios 1A Rocket 2.8 18:52:33 10° SSE 18:56:38 89° WSW 19:00:43 10° NNW
Okean-O 3.3 18:53:09 10° S 18:57:31 58° W 19:01:54 10° NNW
Cosmos 220 Rocket 4.2 18:56:20 10° SSW 19:00:31 71° WNW 19:04:46 10° NNE
SL-4 R/B 2.5 18:58:21 10° W 19:01:45 42° NNW 19:03:19 25° NE
FALCON 9 DEB 3.4 19:00:57 10° WSW 19:04:04 55° NNW 19:05:10 34° NNE
Cosmos 1980 Rocket 2.5 18:59:52 10° SSW 19:05:30 70° WNW 19:11:13 10° NNE
APEX 4.2 19:04:08 10° N 19:05:43 21° NNE 19:05:43 21° NNE
Lacrosse 5 rocket 2.4 19:03:27 10° WNW 19:07:38 44° SW 19:10:59 14° SSE
Sich 1 3.4 19:03:40 10° SSW 19:08:00 68° W 19:12:24 10° N
Cosmos 1302 Rocket 3.9 19:08:24 10° S 19:13:32 68° ESE 19:18:42 10° NNE
Cosmos 2322 Rocket 2.7 19:10:06 10° SSE 19:15:03 33° ESE 19:15:03 33° ESE
Cosmos 2227 4.1 19:10:29 10° NNW 19:16:18 78° ENE 19:20:30 19° SSE
Cosmos 968 Rocket 3.7 19:12:30 10° NNW 19:17:37 49° ENE 19:19:11 38° ESE
Cosmos 1437 3.4 19:16:41 10° NNW 19:19:29 48° W 19:21:07 21° SSW
Cosmos 1707 Rocket 3.8 19:15:39 10° NNW 19:20:03 68° W 19:24:23 10° S
Cosmos 1867 3.9 19:17:13 10° SW 19:22:37 64° NW 19:28:04 10° NNE
ERS-2 4.0 19:20:44 10° N 19:24:01 32° WNW 19:27:17 10° SW
Cosmos 1633 Rocket 3.0 19:19:41 10° S 19:24:05 89° ESE 19:28:32 10° N
Meteor 1-20 Rocket 4.1 19:22:31 10° SSW 19:27:59 83° W 19:33:29 10° N
SL-16 R/B 2.1 19:28:48 10° S 19:34:21 61° ESE 19:37:13 29° NE
USA 234 3.6 19:29:24 17° NE 19:34:29 64° NNW 19:40:55 10° WSW
USA 305 3.6 19:34:08 10° WSW 19:38:16 48° NNW 19:39:14 40° NNE
Meteor 1-19 Rocket 4.2 19:32:18 10° N 19:38:21 84° E 19:42:35 20° SSE
MOS 1 4.2 19:39:28 43° SE 19:41:21 69° ENE 19:47:01 10° N
Cosmos 2327 Rocket 4.5 19:35:12 10° S 19:41:36 88° W 19:47:57 10° N
CZ-4 R/B 4.5 19:39:32 10° SW 19:41:37 14° W 19:43:43 10° WNW
Resurs 01 Rocket 3.6 19:44:38 17° NNE 19:44:38 17° NNE 19:45:49 10° N
SeaSat 1 4.3 19:39:50 10° N 19:44:03 29° NW 19:48:16 10° WSW
Ariane Rocket 2.9 19:43:24 61° SE 19:44:10 73° ENE 19:49:17 10° N
SME Rocket 4.4 19:36:24 10° NNE 19:45:59 74° ESE 19:52:01 10° S
USA 307 3.7 19:42:01 10° W 19:46:07 45° NNW 19:46:43 42° N
DMSP B5D2-2 4.2 19:41:09 10° N 19:46:23 73° WNW 19:51:35 10° SSW
Cosmos 2154 Rocket 4.0 19:41:56 10° S 19:48:11 79° W 19:54:25 10° N
Nadezhda 3 Rocket 4.1 19:42:36 10° N 19:48:59 80° W 19:55:20 10° S
IRS-1A Rocket 4.1 19:47:27 42° SSE 19:49:28 83° ENE 19:55:07 10° NNW
Cosmos 2263 Rocket 2.8 19:47:02 10° NW 19:52:26 52° WSW 19:55:56 21° S
USA 306 3.8 19:48:28 10° W 19:52:32 41° NNW 19:52:52 40° N
Cosmos 1470 Rocket 3.9 19:51:43 10° SSW 19:56:47 63° NNW 20:00:40 10° N
USA 308 3.9 19:52:24 10° W 19:56:27 41° NNW 19:56:37 41° NNW
Meteor 1-14 Rocket 4.0 19:53:02 10° S 19:58:40 86° E 20:04:15 10° NNE
OBJECT-B 3.8 20:05:17 12° NNW 20:05:17 12° NNW 20:05:35 10° NNW
SJ-6B 3.7 20:04:15 50° W 20:04:15 50° W 20:07:57 10° NNW
GP-B 4.0 20:10:28 43° WSW 20:11:10 47° W 20:15:29 10° NNW
Meteor 2-4 Rocket 3.7 20:06:01 10° N 20:11:49 88° W 20:11:52 88° SW
Cosmos 1461 3.9 20:10:00 10° SW 20:13:50 51° W 20:13:50 51° W
BREEZE-M DEB (TANK) 4.2 19:59:02 10° W 20:16:35 84° N 20:17:21 71° ENE
Cosmos 44 Rocket 4.1 20:16:09 10° NNW 20:19:58 49° NNW 20:19:58 49° NNW
Cosmos 2278 Rocket 4.4 20:25:12 10° N 20:26:30 14° NNE 20:26:30 14° NNE
Cosmos 1844 Rocket 3.6 20:25:10 10° NNW 20:28:45 40° N 20:28:45 40° N
Cosmos 2341 Rocket 4.2 20:26:42 10° SSW 20:33:01 69° W 20:39:20 10° N
Gbstr 26 Del rocket 4.4 20:28:20 10° W 20:32:03 43° NW 20:32:03 43° NW
Cosmos 2322 Rocket 3.7 20:53:44 10° SW 20:57:03 30° W 20:57:03 30° W
USA 234 4.4 21:16:44 34° N 21:16:49 34° NNW 21:22:33 10° WNW
SL-16 R/B 4.1 21:14:16 10° WSW 21:18:53 25° NW 21:19:19 25° NW
